Wind_Speed
22 22 23 23 22 23 22 21 20 19 18 19 20 19 22 24 23 10 6 8 2 6 2 6 7 10 9 3 7 0 3 8 10 3 3 8 7 7 10 15 11 5 10 25 34
22 23 24 24 23 23 24 22 20 19 18 19 18 18 20 24 20 10 15 12 11 6 3 6 2 5 3 8 3 5 3 6 9 12 8 9 6 12 10 16 10 11 15 34 37
22 24 25 25 25 24 25 24 21 19 18 17 18 18 20 17 5 7 6 18 14 11 5 5 2 3 3 11 5 5 7 1 16 3 10 4 6 2 16 12 21 20 19 28 32
23 24 25 26 26 25 27 26 22 18 18 16 16 17 17 4 2 1 3 4 13 10 5 5 4 4 3 11 9 8 17 19 10 12 4 4 11 5 5 10 20 20 15 25 23
25 25 26 27 27 27 28 29 23 19 17 15 14 15 5 3 9 5 3 3 8 8 4 1 2 1 6 4 8 2 2 19 14 14 5 7 7 5 10 18 18 15 11 8 15
26 27 27 28 30 29 30 32 24 19 16 14 12 8 2 3 4 8 6 5 4 6 4 5 4 1 3 5 6 4 6 8 8 1 4 6 7 2 13 19 17 16 11 7 8
26 27 28 30 32 32 32 34 24 18 14 11 9 2 1 14 4 7 5 6 6 7 4 11 5 4 5 3 4 16 5 1 7 3 1 2 3 2 14 19 19 15 13 9 8
27 29 30 30 32 34 34 34 21 12 10 8 4 2 7 10 13 14 15 16 14 13 14 15 10 5 8 12 4 3 3 4 3 7 0 4 5 5 7 19 16 15 14 13 10
28 30 32 33 34 35 39 31 15 5 4 3 2 1 10 12 7 16 14 8 13 13 9 13 1 2 5 7 4 3 3 5 3 6 4 5 1 5 7 13 15 14 13 12 12
29 31 33 36 37 39 39 22 5 2 1 2 3 4 6 4 5 18 17 11 4 3 3 3 4 2 4 5 4 6 3 6 3 6 11 5 11 3 5 13 15 14 12 10 10
30 32 35 36 35 43 29 4 4 3 3 7 6 6 9 6 18 8 16 7 3 4 5 3 5 5 10 7 6 9 3 4 6 9 7 13 17 11 10 8 12 9 10 11 10
31 33 36 38 40 24 9 2 7 2 8 12 15 11 21 7 6 5 12 6 5 5 3 4 4 11 10 7 5 7 3 3 4 7 7 6 9 7 5 10 8 13 13 15 9
31 34 37 39 29 5 25 12 22 23 4 8 10 7 7 9 8 8 9 7 4 4 5 7 8 10 7 11 6 6 9 8 4 3 2 2 6 5 3 3 4 10 15 13 14
32 33 36 42 5 27 15 14 30 12 4 7 4 7 5 7 6 10 10 7 3 9 7 6 9 8 7 9 5 8 13 17 8 4 4 8 4 6 7 8 7 7 17 16 14
34 34 35 33 20 10 15 25 26 4 4 3 4 6 7 8 3 4 8 4 9 7 7 9 6 9 9 14 7 19 18 19 8 6 5 4 4 5 9 7 16 15 14 18 18
35 34 37 17 18 19 17 30 6 5 5 3 6 7 6 4 5 6 4 3 4 3 1 8 4 8 11 9 10 4 5 5 6 4 2 7 5 4 10 18 15 18 16 20 20
37 35 36 20 7 14 21 4 4 3 6 4 5 7 6 7 6 4 5 6 5 3 4 6 7 5 4 4 4 6 6 2 1 1 6 5 2 7 18 13 16 21 15 11 18
39 37 28 27 22 11 6 5 2 5 7 3 3 6 7 6 6 5 8 6 4 5 2 4 7 6 3 8 8 4 8 6 5 2 4 3 5 6 3 5 9 6 8 13 18
39 29 20 16 4 9 5 2 6 6 3 8 7 6 4 4 4 5 8 10 10 8 8 4 7 5 4 5 9 5 2 7 6 1 3 4 4 4 6 5 6 11 8 10 19
27 14 13 4 15 9 4 6 6 4 7 4 3 5 9 7 5 6 7 7 7 11 7 7 4 6 9 5 1 8 5 3 4 4 3 4 4 5 4 4 2 6 11 6 8
9 4 9 14 17 5 3 7 7 7 6 5 11 9 6 5 10 8 10 6 11 8 11 6 4 12 1 5 10 0 0 5 5 5 5 3 5 14 7 7 8 2 4 8 9
6 3 7 22 3 2 3 5 6 11 13 9 7 11 7 6 6 10 16 11 13 11 9 10 6 3 5 9 4 7 9 7 5 4 0 4 4 15 7 6 5 1 8 4 10
3 4 7 11 2 3 6 9 9 23 19 6 7 8 3 3 3 8 8 8 11 9 10 7 1 2 9 7 5 2 5 6 5 3 5 5 3 7 5 14 9 6 10 16 11
2 3 4 2 2 4 4 7 8 8 13 7 12 5 5 5 4 7 8 2 7 6 9 10 4 6 6 7 4 3 4 3 6 3 3 3 9 6 7 9 8 8 4 6 12
1 4 2 4 4 6 1 6 16 13 6 4 8 4 2 6 3 2 4 3 6 7 4 5 3 4 6 7 4 2 2 4 5 5 7 14 10 9 6 14 14 8 4 4 12
1 2 5 4 5 3 4 4 16 19 7 15 3 18 1 4 5 5 4 3 4 1 4 2 3 3 2 3 11 20 18 10 6 8 13 10 3 5 8 7 16 12 5 7 6
4 6 2 4 5 2 1 8 16 14 11 15 15 5 5 7 12 7 5 7 8 8 5 5 5 3 3 6 7 11 12 7 3 4 18 11 7 13 7 9 11 13 7 4 7
Wind_Direction
10 7 6 4 359 356 354 349 343 338 335 334 334 333 332 331 328 318 245 232 253 177 189 150 210 221 180 86 117 14 5 23 3 85 160 129 122 160 130 134 156 225 133 162 159
5 2 359 359 357 354 351 346 341 337 332 330 330 331 332 331 329 274 256 230 255 243 203 168 235 205 193 133 86 30 56 49 48 38 333 353 121 121 127 153 125 121 108 155 158
360 358 357 356 355 352 349 344 339 334 330 328 328 329 331 332 333 249 273 221 231 260 273 310 208 230 259 119 116 303 42 117 87 74 306 10 340 13 139 149 153 159 139 150 156
355 354 353 353 352 350 347 344 336 330 326 325 326 328 332 348 214 6 36 216 229 250 298 340 28 23 304 110 160 141 199 134 151 173 258 58 324 286 147 172 160 158 161 152 157
354 351 349 349 349 346 344 343 335 327 320 318 322 332 348 5 249 250 254 179 223 236 231 167 342 129 20 144 137 228 317 97 116 150 214 320 352 310 112 138 151 155 163 170 156
351 349 347 348 346 343 341 342 333 324 315 311 317 329 12 275 249 250 210 177 193 205 255 165 216 38 8 54 154 210 41 36 50 88 65 48 316 2 141 140 153 159 171 197 177
349 348 347 346 343 340 337 339 332 320 312 309 309 342 274 237 212 175 293 271 261 209 206 260 262 73 94 93 207 116 98 188 74 58 67 79 26 76 152 152 158 168 177 193 206
348 348 347 344 341 337 333 334 327 317 314 311 302 133 248 264 290 265 257 253 277 263 228 266 267 253 123 125 98 89 97 108 263 145 108 74 250 188 184 155 166 172 182 193 216
348 347 344 341 339 335 330 332 320 316 322 319 73 131 266 302 267 232 236 242 264 279 261 248 354 214 77 157 110 344 208 137 220 216 114 145 32 291 170 165 171 181 190 198 215
345 343 340 338 337 335 329 333 328 272 69 2 271 346 274 262 236 228 232 233 206 333 42 136 51 41 4 80 160 218 254 65 133 203 206 230 234 232 238 175 182 184 192 203 211
342 341 338 337 337 332 331 1 9 31 183 206 207 244 289 303 311 236 216 211 58 81 144 254 97 189 248 210 149 206 124 194 189 231 162 219 250 208 230 171 182 196 191 197 205
341 340 337 335 336 331 15 2 229 9 301 230 242 247 258 290 317 248 177 149 125 194 154 30 192 218 232 270 184 196 157 236 251 238 219 235 233 215 236 202 185 189 205 198 190
341 340 338 335 338 28 326 285 340 322 296 280 208 226 227 151 218 244 132 179 167 185 186 169 230 205 216 261 255 192 161 221 198 72 137 83 321 227 267 339 246 207 207 200 192
339 339 340 339 354 331 301 335 329 334 18 277 216 244 196 171 286 217 178 143 170 201 186 206 242 213 220 244 195 181 201 191 205 108 209 161 241 252 194 252 277 251 198 199 192
334 334 336 341 305 310 314 337 340 52 355 187 192 189 163 157 230 262 171 83 199 219 106 234 202 216 223 233 218 257 182 192 178 157 72 291 95 281 119 249 249 237 216 203 197
328 328 329 331 300 296 317 333 349 45 262 275 147 157 107 211 261 2 166 119 185 223 248 236 236 156 206 228 194 223 129 63 60 81 340 245 164 248 185 219 221 247 224 206 195
325 321 318 296 250 306 318 358 43 163 313 209 172 150 158 194 252 157 196 190 188 111 316 314 285 279 195 282 4 82 67 25 154 98 218 253 28 219 212 200 196 218 227 215 199
324 319 312 285 279 291 344 59 197 251 272 283 131 134 175 173 233 198 136 187 265 110 49 182 315 214 206 180 180 151 143 148 196 197 252 18 239 262 106 286 232 212 194 222 200
325 323 300 286 179 167 80 104 217 219 311 2 350 137 251 241 173 129 181 194 204 163 171 155 272 314 173 184 135 245 147 189 122 100 74 265 295 15 88 23 97 140 129 171 183
324 314 283 256 165 134 81 233 242 238 4 355 222 198 182 227 150 168 194 213 209 188 160 231 276 240 281 137 211 153 170 42 11 169 204 289 285 221 142 159 259 88 119 137 133
316 331 311 162 149 58 175 234 283 262 327 356 303 270 203 199 193 190 207 257 194 214 156 163 125 282 105 163 189 8 119 77 123 134 157 186 278 345 166 199 132 115 71 103 117
345 311 87 151 85 184 190 225 282 297 304 272 235 219 189 198 231 198 212 203 194 192 161 202 161 201 251 276 225 153 188 140 125 246 279 143 316 332 40 348 337 45 343 16 64
327 261 292 215 256 256 280 286 275 280 280 284 288 300 255 230 247 191 206 235 193 158 178 179 69 30 339 351 10 193 209 143 114 96 220 117 236 324 39 44 23 33 25 343 349
329 319 306 45 197 187 322 283 275 286 286 263 263 287 309 319 238 203 200 331 106 127 171 98 120 151 196 217 162 284 251 139 125 125 117 119 163 278 91 99 68 36 104 340 309
213 259 277 316 327 328 300 287 297 287 265 321 306 255 303 294 12 41 21 78 42 155 92 106 157 187 232 231 193 184 261 257 161 190 131 184 168 197 205 131 117 74 353 237 276
283 2 338 288 275 274 215 271 286 279 223 288 275 291 150 217 199 174 155 65 203 225 122 25 200 183 340 220 63 31 4 84 81 105 93 145 179 223 252 234 125 115 123 171 193
320 340 110 279 306 351 225 323 323 342 289 248 276 240 131 202 215 169 182 175 198 178 142 118 123 85 292 52 73 35 343 28 124 182 143 173 191 184 241 245 158 148 162 208 138
Height
811 808 805 802 798 795 791 788 785 782 779 776 773 771 768 765 762 759 757 752 753 756 757 758 760 761 766 771 777 773 800 816 801 790 785 764 773 768 767 779 780 777 781 789 800
812 808 805 801 798 794 790 787 783 780 777 775 772 770 767 763 759 755 748 750 750 753 756 758 759 758 768 772 785 792 821 815 800 792 790 772 766 772 780 786 788 786 786 792 800
812 808 805 801 797 793 789 785 782 779 776 774 771 768 766 763 761 748 744 745 748 749 751 753 757 756 762 767 785 796 814 806 791 789 778 780 774 768 781 794 782 787 788 792 799
811 808 804 800 796 792 788 784 780 777 775 772 770 767 764 763 776 745 743 744 747 749 750 751 753 763 770 784 770 802 784 771 787 779 770 785 781 775 773 782 777 777 782 792 796
811 807 803 799 795 791 786 782 778 775 773 771 769 766 764 766 756 743 744 745 745 747 749 752 758 763 775 772 766 781 765 769 776 778 784 778 779 777 776 775 781 782 784 789 795
810 806 802 798 793 789 784 780 776 773 771 769 768 767 767 774 741 741 743 744 745 746 746 749 754 755 767 775 775 769 779 777 780 783 780 786 785 779 781 776 785 785 787 789 789
809 805 801 796 792 787 782 778 774 770 768 767 767 767 767 753 739 741 743 743 744 746 747 744 749 756 765 778 767 773 791 783 782 783 790 783 791 789 777 777 784 788 788 790 789
807 803 799 794 789 784 778 774 770 768 767 766 766 767 763 737 738 737 739 741 741 744 746 742 747 749 761 766 778 787 791 810 784 784 785 791 813 785 779 780 788 788 788 789 789
806 802 797 792 787 781 774 769 766 766 766 765 766 766 760 736 733 732 735 738 739 740 742 742 743 753 759 788 803 797 814 804 801 779 787 794 809 789 779 783 790 789 789 789 790
806 801 795 789 784 777 769 765 763 765 766 766 767 773 745 737 729 729 731 735 738 740 743 747 760 772 778 794 829 814 807 799 800 781 787 795 797 787 784 780 783 786 788 789 789
804 799 793 787 781 774 766 764 767 768 765 761 758 755 740 733 730 727 729 733 737 745 769 756 784 796 781 775 778 785 796 796 791 769 785 789 783 781 775 779 781 786 786 786 786
803 797 791 784 778 771 770 771 765 765 769 748 744 742 735 738 746 726 727 742 748 768 760 775 794 774 763 762 775 783 796 800 779 769 787 783 783 775 773 777 774 777 780 778 779
802 796 789 781 774 772 771 767 764 762 771 743 732 735 733 732 741 733 726 737 748 764 767 786 771 757 765 768 779 786 799 798 781 772 778 787 798 785 775 775 770 766 768 772 775
801 796 790 781 777 773 766 764 762 761 792 760 738 726 725 727 739 716 720 732 747 763 767 772 752 760 767 774 769 805 769 769 776 792 816 782 832 801 787 785 775 770 767 768 770
799 795 790 790 784 778 768 762 758 759 815 734 732 710 716 734 727 723 716 729 753 754 761 769 758 766 774 765 754 764 752 763 769 792 806 800 818 805 793 796 781 764 763 758 759
795 792 788 786 781 770 767 763 761 800 808 741 720 729 736 734 730 722 725 723 729 747 750 755 735 746 752 743 745 734 758 770 784 808 832 801 804 806 791 771 767 758 755 751 755
791 786 784 780 773 769 768 766 803 814 745 741 736 732 739 745 740 737 743 750 765 777 782 761 751 737 731 748 740 748 785 828 829 838 834 791 798 787 762 747 750 753 749 746 749
785 779 772 767 765 769 768 785 807 767 755 723 727 735 748 740 743 741 752 763 751 760 787 791 792 744 727 742 756 755 778 822 833 838 819 796 806 775 746 739 735 739 743 740 746
781 771 763 756 760 766 777 807 790 765 738 743 736 747 749 735 736 739 752 760 747 753 781 790 782 734 727 725 737 758 779 769 803 808 824 808 776 752 750 748 741 742 741 737 737
782 773 759 753 758 764 787 797 772 741 738 739 759 743 759 748 750 750 756 735 740 735 738 757 785 744 733 720 726 744 744 788 810 819 821 811 792 792 769 760 750 745 749 744 737
783 780 751 752 758 773 796 787 756 734 738 745 749 755 741 742 743 753 746 728 722 725 735 748 767 754 734 742 755 757 766 774 789 808 828 829 811 783 760 757 751 745 738 738 738
786 788 754 756 773 778 783 763 744 734 728 738 729 728 731 731 739 744 738 726 705 711 740 736 768 778 753 729 726 738 753 770 807 799 806 808 819 780 767 762 754 748 750 737 749
792 782 754 755 783 780 765 757 748 739 735 735 730 719 712 721 739 725 721 694 696 716 728 729 767 793 776 755 736 738 738 753 774 787 793 813 820 779 770 763 757 760 758 764 756
795 790 763 755 756 764 767 763 753 728 725 719 718 711 714 720 713 721 714 692 692 701 710 714 761 770 792 770 748 751 739 738 763 786 799 796 806 795 771 770 763 758 749 764 772
795 787 773 780 768 769 766 761 755 749 727 718 717 710 719 725 721 718 709 702 699 702 704 722 754 750 748 742 736 734 735 735 752 754 778 788 791 786 776 762 761 767 761 767 774
797 791 781 779 769 763 761 759 749 733 736 726 725 710 708 716 717 721 713 714 716 705 710 722 750 739 748 732 736 747 741 746 757 768 773 789 792 777 766 761 747 755 763 767 766
790 787 788 778 771 767 764 759 747 741 714 710 711 710 709 706 698 696 697 704 706 718 725 731 747 763 760 739 745 775 760 745 748 751 759 776 765 770 772 760 745 750 762 762 756